The Dalles, WA

10:27 PM PDT on July 24, 2017 (GMT -0700)
Columbia Gorge Regional-The Dalles

Weather History for KDLS - September, 2012

Change the Weather History Date:

Saturday, September 8, 2012

  Actual Average Record
Temperature  
Mean Temperature 72 °F -  
Max Temperature 91 °F 83 °F 99 °F (1963)
Min Temperature 52 °F 54 °F 40 °F (1960)
Cooling Degree Days 6    
Growing Degree Days 22 (Base 50)    
Moisture  
Dew Point 44 °F    
Average Humidity 40    
Maximum Humidity 66    
Minimum Humidity 15    
Precipitation  
Precipitation 0.00 in - - ()
Sea Level Pressure  
Sea Level Pressure 29.96 in    
Wind  
Wind Speed 4 mph (NW)    
Max Wind Speed 22 mph    
Max Gust Speed 29 mph    
Visibility 10 miles    
Events      
Averages and records for this station are not official NWS values.
T = Trace of Precipitation, MM = Missing Value Source: NWS Daily Summary

Daily Weather History Graph

Daily Weather History Graph

Search for Another Location

Airport or City:

Trip Planner

Search our weather history database for the weather conditions in past years. The results will help you decide how hot, cold, wet, or windy it might be!

Date:

Astronomy

Sep. 08, 2012 Rise Set
Actual Time 6:35 AM PDT 7:28 PM PDT
Civil Twilight 6:05 AM PDT 7:58 PM PDT
Nautical Twilight 5:29 AM PDT 8:34 PM PDT
Astronomical Twilight 4:51 AM PDT 9:11 PM PDT
Moon 11:56 PM PDT (9/8) 2:43 PM PDT (9/8)
Length of Visible Light 13h 53m
Length of Day
12h 52m
Waning Gibbous, 48% of the Moon is Illuminated
Sep 8
Waning Gibbous
Sep 15
New
Sep 22
First Quarter
Sep 29
Full
Oct 8
Last Quarter

Hourly Weather History & Observations

Time (PDT) Temp. Dew Point Humidity Pressure Visibility Wind Dir Wind Speed Gust Speed Precip Events Conditions
12:53 AM 62.1 °F 39.0 °F 43% 30.09 in 10.0 mi ESE 4.6 mph - N/A   Clear
1:53 AM 57.0 °F 39.0 °F 51% 30.08 in 10.0 mi Calm Calm - N/A   Clear
2:53 AM 57.9 °F 43.0 °F 58% 30.08 in 10.0 mi Calm Calm - N/A   Clear
3:53 AM 57.0 °F 42.1 °F 57% 30.07 in 10.0 mi Calm Calm - N/A   Clear
4:53 AM 55.9 °F 37.9 °F 51% 30.08 in 10.0 mi South 3.5 mph - N/A   Clear
5:53 AM 52.0 °F 41.0 °F 66% 30.08 in 10.0 mi Calm Calm - N/A   Clear
6:53 AM 53.1 °F 39.0 °F 59% 30.08 in 10.0 mi ESE 4.6 mph - N/A   Clear
7:53 AM 57.9 °F 42.1 °F 56% 30.08 in 10.0 mi Calm Calm - N/A   Clear
8:53 AM 62.1 °F 42.1 °F 48% 30.08 in 10.0 mi Calm Calm - N/A   Clear
9:53 AM 68.0 °F 42.1 °F 39% 30.07 in 10.0 mi Calm Calm - N/A   Clear
10:53 AM 75.0 °F 42.1 °F 31% 30.04 in 10.0 mi Calm Calm - N/A   Clear
11:53 AM 80.1 °F 41.0 °F 25% 30.01 in 10.0 mi Calm Calm - N/A   Clear
12:53 PM 84.9 °F 41.0 °F 21% 29.97 in 10.0 mi Variable 3.5 mph - N/A   Clear
1:53 PM 88.0 °F 37.9 °F 17% 29.93 in 10.0 mi Calm Calm - N/A   Partly Cloudy
2:53 PM 88.0 °F 39.9 °F 18% 29.88 in 10.0 mi Variable 3.5 mph - N/A   Clear
3:53 PM 90.0 °F 41.0 °F 18% 29.86 in 10.0 mi WSW 4.6 mph - N/A   Clear
4:53 PM 91.0 °F 37.9 °F 15% 29.83 in 10.0 mi West 3.5 mph - N/A   Clear
5:53 PM 86.0 °F 45.0 °F 24% 29.82 in 10.0 mi NNW 11.5 mph - N/A   Clear
6:53 PM 82.0 °F 52.0 °F 35% 29.82 in 10.0 mi NNW 19.6 mph 24.2 mph N/A   Clear
7:53 PM 79.0 °F 54.0 °F 42% 29.83 in 10.0 mi NNW 21.9 mph 27.6 mph N/A   Clear
8:53 PM 78.1 °F 53.1 °F 42% 29.85 in 10.0 mi NW 17.3 mph 24.2 mph N/A   Clear
9:53 PM 77.0 °F 53.1 °F 43% 29.84 in 10.0 mi NW 17.3 mph 26.5 mph N/A   Clear
10:53 PM 73.9 °F 54.0 °F 50% 29.84 in 10.0 mi NW 20.7 mph 28.8 mph N/A   Clear
11:53 PM 73.0 °F 53.1 °F 49% 29.85 in 10.0 mi WNW 13.8 mph - N/A   Clear